Hourly Weather Roundup
Issued by NWS Central Illinois

Home | Current Version | Previous Version | Graphics & Text | Print | Product List | Glossary On
Versions: 1 2 3 4 5 6 7 8 9 10 11 12 13 14 15 16 17 18 19 20 21 22 23 24 25 26 27 28 29 30 31 32 33 34 35 36 37 38 39 40 41 42 43 44 45 46 47 48 49 50
000
NZUS43 KILX 201010
HWRILX

Area Weather Roundup
National Weather Service Lincoln IL
500 AM CDT FRI OCT 20 2017

NOTE:  "FAIR" indicates few or no clouds below 12,000 feet, with
       no sigificant weather and/or obstructions to visibility.


CITY           SKY/WX    TMP DP  RH WIND       PRES   REMARKS
Bloomington    FAIR      52  48  86 S8        30.19R
Champaign      FAIR      50  45  83 SE6       30.21R
Danville       FAIR      51  49  94 S3        30.19R
Decatur        FAIR      53  48  83 S7        30.19R
Effingham      FAIR      50  50  99 SE3       30.23S
Flora          FAIR      50  49  96 CALM      30.23R
Galesburg      FAIR      61  57  87 S5        30.14R
Jacksonville   FAIR      56  49  77 S7        30.16S
Lacon          FAIR      56  49  78 SE6       30.13S
Lawrenceville  FAIR      51  49  92 CALM      30.24R
Litchfield     FAIR      52  48  86 SE5       30.19R FOG
$$


CITY           SKY/WX    TMP DP  RH WIND       PRES   REMARKS
Lincoln        FAIR      53  50  91 CALM      30.18R
Macomb         FAIR      53  48  83 S7        30.15R
Mattoon        FAIR      55  52  89 S7        30.20R
Mt Carmel AP   FOG       49  48  97 CALM      30.23S VSB 3/4
Olney-Noble AP FAIR      49  47  93 CALM      30.23S
Paris AP       FAIR      50  48  94 S5        30.24R
Peoria         FAIR      54  50  86 S7        30.15R
Pontiac        FAIR      52  51  98 SE6       30.18R
Rantoul        FAIR      51  49  91 CALM      30.20S
Robinson       FOG       44  44 100 CALM      30.24R VSB 3/4
Springfield    FAIR      57  51  80 S7        30.17R
Taylorville    FAIR      54  49  84 S7        30.19R
$$

...REGIONAL REPORTS...


CITY           SKY/WX    TMP DP  RH WIND       PRES   REMARKS
Chicago O`Hare FAIR      51  44  77 S3        30.15R
Kankakee       FAIR      53  48  83 S3        30.19S
Moline         FAIR      54  47  77 CALM      30.10R
Mount Sterling FAIR      52  48  86 S5        30.14R
Mount Vernon   FAIR      43  43 100 CALM      30.22R FOG
Pittsfield     FAIR      54  49  84 S3        30.16S
Quincy         NOT AVBL
Rockford       FAIR      49  44  83 S5        30.15R
$$


CITY           SKY/WX    TMP DP  RH WIND       PRES   REMARKS
Burlington     FAIR      54  50  86 S5        30.11R
Cedar Rapids   FAIR      54  49  83 S8        30.07R
Des Moines     FAIR      57  52  83 S10       30.03S
Kirksville     FAIR      57  52  83 S7        30.12R
Ottumwa        FAIR      54  50  86 S8        30.07S
St Louis       FAIR      54  50  86 SE5       30.18R
$$


CITY           SKY/WX    TMP DP  RH WIND       PRES   REMARKS
Terre Haute    FAIR      48  45  89 E3        30.23R
Evansville     FAIR      48  47  96 CALM      30.25R FOG
Indianapolis   FAIR      52  50  93 SE3       30.24R
Lafayette      FAIR      49  48  97 CALM      30.22R
Madison        FAIR      52  43  71 S5        30.09R
Milwaukee      FAIR      53  40  61 S7        30.13R
$$






USA.gov is the U.S. government's official web portal to all federal, state and local government web resources and services.